#timestamp,LO_Frequency,Hit,Temp,Hum 
1480543215.6,286047048.3,N,0.0,0.0
1480543235.4,286047048.6,N,0.0,0.0
1480543255.3,286047048.9,N,0.0,0.0
1480543275.1,286047049.9,N,0.0,0.0
1480543295.8,286047051.5,N,0.0,0.0
1480543315.7,286047051.8,N,0.0,0.0
1480543335.5,286047052.2,N,0.0,0.0
1480543355.4,286047050.9,N,0.0,0.0
1480543375.2,286047051.6,N,0.0,0.0
1480543395.0,286047049.6,N,0.0,0.0
1480543395.9,286047049.6,N,0.0,0.0
1480543415.8,286047049.9,N,0.0,0.0
1480543435.6,286047049.8,N,0.0,0.0
1480543455.5,286047052.3,N,0.0,0.0
1480543475.3,286047050.8,N,0.0,0.0
1480543495.1,286047050.3,N,0.0,0.0
1480543515.9,286047053.6,N,0.0,0.0
1480543535.7,286047053.3,N,0.0,0.0
1480543555.5,286047055.6,N,0.0,0.0
1480543575.4,286047053.7,N,0.0,0.0
1480543595.2,286047054.6,N,0.0,0.0
1480543615.1,286047056.0,N,0.0,0.0
1480543616.0,286047056.0,N,0.0,0.0
1480543635.8,286047056.8,N,0.0,0.0
1480543655.6,286047056.1,N,0.0,0.0
1480543675.5,286047058.6,N,0.0,0.0
1480543695.3,286047057.3,N,0.0,0.0
1480543715.2,286047055.8,N,0.0,0.0
1480543735.9,286047058.4,N,0.0,0.0
1480543755.7,286047058.1,N,0.0,0.0
1480543775.6,286047058.9,N,0.0,0.0
1480543795.4,286047061.1,N,0.0,0.0
1480543815.2,286047061.4,N,0.0,0.0
1480543835.1,286047060.0,N,0.0,0.0
1480543836.0,286047060.0,N,0.0,0.0
1480543855.8,286047060.8,N,0.0,0.0
1480543875.7,286047063.2,N,0.0,0.0
1480543895.5,286047060.5,N,0.0,0.0
1480543915.3,286047060.9,N,0.0,0.0
1480543935.2,286047062.5,N,0.0,0.0
1480543955.0,286047065.0,N,0.0,0.0
1480543955.9,286047065.0,N,0.0,0.0
1480543975.8,286047063.3,N,0.0,0.0
1480543995.6,286047064.4,N,0.0,0.0
1480544015.4,286047063.8,N,0.0,0.0
1480544035.3,286047068.0,N,0.0,0.0
1480544055.1,286047067.5,N,0.0,0.0
1480544075.9,286047067.0,N,0.0,0.0
1480544095.7,286047069.4,N,0.0,0.0
1480544115.5,286047069.3,N,0.0,0.0
1480544135.4,286047069.4,N,0.0,0.0
1480544155.2,286047071.5,N,0.0,0.0
1480544175.0,286047071.3,N,0.0,0.0
1480544175.9,286047071.3,N,0.0,0.0
1480544195.8,286047071.2,N,0.0,0.0
1480544215.6,286047071.6,N,0.0,0.0
1480544235.5,286047071.5,N,0.0,0.0
1480544255.3,286047068.5,N,0.0,0.0
1480544275.1,286047069.1,N,0.0,0.0
1480544295.9,286047071.2,N,0.0,0.0
1480544315.7,286047071.3,N,0.0,0.0
1480544335.5,286047069.7,N,0.0,0.0
1480544355.4,286047069.8,N,0.0,0.0
1480544375.2,286047068.5,N,0.0,0.0
1480544395.1,286047071.5,N,0.0,0.0
1480544396.0,286047071.5,N,0.0,0.0
1480544415.8,286047072.0,N,0.0,0.0
1480544435.6,286047072.8,N,0.0,0.0
1480544455.5,286047074.2,N,0.0,0.0
1480544475.3,286047073.4,N,0.0,0.0
1480544495.2,286047077.9,N,0.0,0.0
1480544515.9,286047076.8,N,0.0,0.0
1480544535.7,286047075.8,N,0.0,0.0
1480544555.6,286047073.3,N,0.0,0.0
1480544575.4,286047077.6,N,0.0,0.0
1480544595.2,286047076.2,N,0.0,0.0
1480544615.1,286047075.4,N,0.0,0.0
1480544616.0,286047075.4,N,0.0,0.0
1480544635.8,286047075.5,N,0.0,0.0
1480544655.7,286047076.7,N,0.0,0.0
1480544675.5,286047076.6,N,0.0,0.0
1480544695.3,286047078.8,N,0.0,0.0
1480544715.2,286047078.5,N,0.0,0.0
1480544735.0,286047080.0,N,0.0,0.0
1480544735.9,286047080.0,N,0.0,0.0
1480544755.8,286047080.0,N,0.0,0.0
1480544775.6,286047081.0,N,0.0,0.0
1480544795.4,286047080.9,N,0.0,0.0
1480544815.3,286047082.4,N,0.0,0.0
1480544835.1,286047082.6,N,0.0,0.0
1480544855.8,286047081.3,N,0.0,0.0
1480544875.7,286047084.4,N,0.0,0.0
1480544895.5,286047082.9,N,0.0,0.0
1480544915.4,286047083.6,N,0.0,0.0
1480544935.2,286047083.7,N,0.0,0.0
1480544955.0,286047083.8,N,0.0,0.0
1480544955.9,286047083.8,N,0.0,0.0
1480544975.8,286047083.5,N,0.0,0.0
1480544995.6,286047083.2,N,0.0,0.0
1480545015.5,286047085.6,N,0.0,0.0
1480545035.3,286047084.7,N,0.0,0.0
1480545055.1,286047087.3,N,0.0,0.0
1480545075.9,286047087.1,N,0.0,0.0
1480545095.7,286047086.7,N,0.0,0.0
1480545115.5,286047088.9,N,0.0,0.0
1480545135.4,286047087.9,N,0.0,0.0
1480545155.2,286047087.9,N,0.0,0.0
1480545175.1,286047087.7,N,0.0,0.0
1480545176.0,286047087.7,N,0.0,0.0
1480545195.8,286047090.7,N,0.0,0.0
1480545215.6,286047089.6,N,0.0,0.0
1480545235.5,286047090.6,N,0.0,0.0
1480545255.3,286047089.9,N,0.0,0.0
1480545275.2,286047089.4,N,0.0,0.0
1480545295.9,286047091.4,N,0.0,0.0
1480545315.7,286047091.2,N,0.0,0.0
1480545335.6,286047093.6,N,0.0,0.0
1480545355.4,286047089.7,N,0.0,0.0
1480545375.2,286047091.5,N,0.0,0.0
1480545395.1,286047091.1,N,0.0,0.0
1480545396.0,286047091.1,N,0.0,0.0
1480545415.8,286047093.9,N,0.0,0.0
1480545435.7,286047091.3,N,0.0,0.0
1480545455.5,286047091.8,N,0.0,0.0
1480545475.3,286047091.5,N,0.0,0.0
1480545495.2,286047092.1,N,0.0,0.0
1480545515.0,286047094.0,N,0.0,0.0
1480545515.9,286047094.0,N,0.0,0.0
1480545535.8,286047093.4,N,0.0,0.0
1480545555.6,286047093.9,N,0.0,0.0
1480545575.4,286047093.6,N,0.0,0.0
1480545595.3,286047093.5,N,0.0,0.0
1480545615.1,286047095.6,N,0.0,0.0
1480545635.9,286047093.7,N,0.0,0.0
1480545655.7,286047093.2,N,0.0,0.0
1480545675.5,286047092.7,N,0.0,0.0
1480545695.4,286047095.3,N,0.0,0.0
1480545715.2,286047097.1,N,0.0,0.0
1480545735.0,286047094.2,N,0.0,0.0
1480545735.9,286047094.2,N,0.0,0.0
1480545755.8,286047094.1,N,0.0,0.0
1480545775.6,286047097.1,N,0.0,0.0
1480545795.5,286047097.2,N,0.0,0.0
1480545815.3,286047096.6,N,0.0,0.0
1480545835.1,286047096.0,N,0.0,0.0
1480545855.9,286047098.7,N,0.0,0.0
1480545875.7,286047098.8,N,0.0,0.0
1480545895.6,286047098.6,N,0.0,0.0
1480545915.4,286047097.4,N,0.0,0.0
1480545935.2,286047097.3,N,0.0,0.0
1480545955.1,286047098.0,N,0.0,0.0
1480545956.0,286047098.0,N,0.0,0.0
1480545975.8,286047097.4,N,0.0,0.0
1480545995.7,286047100.2,N,0.0,0.0
1480546015.5,286047099.4,N,0.0,0.0
1480546035.3,286047099.3,N,0.0,0.0
1480546055.2,286047099.4,N,0.0,0.0
1480546075.0,286047099.3,N,0.0,0.0
1480546075.9,286047099.3,N,0.0,0.0
1480546095.8,286047101.3,N,0.0,0.0
1480546115.6,286047099.4,N,0.0,0.0
1480546135.4,286047102.0,N,0.0,0.0
1480546155.3,286047099.0,N,0.0,0.0
1480546175.1,286047101.8,N,0.0,0.0
1480546195.8,286047098.9,N,0.0,0.0
1480546215.7,286047101.5,N,0.0,0.0
1480546235.5,286047100.6,N,0.0,0.0
1480546255.4,286047102.4,N,0.0,0.0
1480546275.2,286047102.6,N,0.0,0.0
1480546295.0,286047105.0,N,0.0,0.0
1480546295.9,286047105.0,N,0.0,0.0
1480546315.8,286047106.8,N,0.0,0.0
1480546335.6,286047106.4,N,0.0,0.0
1480546355.5,286047103.7,N,0.0,0.0
1480546375.3,286047104.5,N,0.0,0.0
1480546395.1,286047104.2,N,0.0,0.0
1480546415.9,286047106.2,N,0.0,0.0
1480546435.7,286047106.2,N,0.0,0.0
1480546455.5,286047106.5,N,0.0,0.0
1480546475.4,286047106.2,N,0.0,0.0
1480546495.2,286047105.5,N,0.0,0.0
1480546515.1,286047105.6,N,0.0,0.0
1480546516.0,286047105.6,N,0.0,0.0
1480546535.8,286047108.3,N,0.0,0.0
1480546555.6,286047108.3,N,0.0,0.0
1480546575.5,286047107.4,N,0.0,0.0
1480546595.3,286047107.0,N,0.0,0.0
1480546615.2,286047109.6,N,0.0,0.0
1480546635.9,286047107.0,N,0.0,0.0
1480546655.7,286047109.8,N,0.0,0.0
1480546675.6,286047109.7,N,0.0,0.0
1480546695.4,286047109.6,N,0.0,0.0
1480546715.2,286047108.8,N,0.0,0.0
1480546735.1,286047111.1,N,0.0,0.0
1480546736.0,286047111.1,N,0.0,0.0
1480546755.8,286047108.5,N,0.0,0.0
1480546775.7,286047108.6,N,0.0,0.0
1480546795.5,286047110.4,N,0.0,0.0
